TimeEDT,TemperatureF,Dew PointF,Humidity,Sea Level PressureIn,VisibilityMPH,Wind Direction,Wind SpeedMPH,Gust SpeedMPH,PrecipitationIn,Events,Conditions,WindDirDegrees,DateUTC
12:53 AM,57.0,54.0,89,29.97,10.0,Calm,Calm,-,N/A,,Scattered Clouds,0,2013-04-30 04:53:00
1:53 AM,55.9,53.1,90,29.96,10.0,Calm,Calm,-,N/A,,Clear,0,2013-04-30 05:53:00
2:44 AM,55.4,53.6,94,29.97,4.0,Calm,Calm,-,N/A,,Partly Cloudy,0,2013-04-30 06:44:00
2:53 AM,55.0,53.1,93,29.95,4.0,Calm,Calm,-,N/A,,Partly Cloudy,0,2013-04-30 06:53:00
3:53 AM,53.1,51.1,93,29.96,9.0,Calm,Calm,-,N/A,,Clear,0,2013-04-30 07:53:00
4:01 AM,51.8,51.8,100,29.98,4.0,Calm,Calm,-,N/A,,Partly Cloudy,0,2013-04-30 08:01:00
4:04 AM,51.8,51.8,100,29.98,4.0,Calm,Calm,-,N/A,,Partly Cloudy,0,2013-04-30 08:04:00
4:53 AM,52.0,52.0,100,29.97,4.0,Calm,Calm,-,N/A,,Scattered Clouds,0,2013-04-30 08:53:00
5:09 AM,51.8,51.8,100,29.99,1.5,Calm,Calm,-,N/A,,Scattered Clouds,0,2013-04-30 09:09:00
5:13 AM,51.8,51.8,100,30.00,1.2,Calm,Calm,-,N/A,,Mostly Cloudy,0,2013-04-30 09:13:00
5:44 AM,50.0,48.2,94,30.00,2.0,Calm,Calm,-,N/A,,Scattered Clouds,0,2013-04-30 09:44:00
5:53 AM,50.0,48.9,96,29.99,2.0,Calm,Calm,-,N/A,,Scattered Clouds,0,2013-04-30 09:53:00
6:15 AM,50.0,48.2,94,30.02,3.0,Calm,Calm,-,N/A,,Scattered Clouds,0,2013-04-30 10:15:00
6:41 AM,50.0,48.2,94,30.02,3.0,Calm,Calm,-,N/A,,Mostly Cloudy,0,2013-04-30 10:41:00
8:34 AM,53.6,53.6,100,30.07,1.0,Calm,Calm,-,N/A,,Mostly Cloudy,0,2013-04-30 12:34:00
8:53 AM,55.4,53.6,94,30.07,3.0,Calm,Calm,-,N/A,,Partly Cloudy,0,2013-04-30 12:53:00
9:53 AM,62.1,55.0,78,30.06,-9999.0,Calm,Calm,-,N/A,,Partly Cloudy,0,2013-04-30 13:53:00
10:53 AM,66.9,55.9,68,30.05,10.0,Calm,Calm,-,N/A,,Partly Cloudy,0,2013-04-30 14:53:00
11:53 AM,71.1,55.0,57,30.05,10.0,Calm,Calm,-,N/A,,Partly Cloudy,0,2013-04-30 15:53:00
1:53 PM,73.9,53.1,48,30.00,10.0,WSW,3.5,-,N/A,,Partly Cloudy,250,2013-04-30 17:53:00
2:53 PM,75.2,51.8,44,29.98,10.0,WNW,4.6,-,N/A,,Partly Cloudy,300,2013-04-30 18:53:00
3:53 PM,77.0,51.8,41,29.98,10.0,Calm,Calm,-,N/A,,Partly Cloudy,0,2013-04-30 19:53:00
4:53 PM,78.8,53.6,42,30.00,10.0,NW,6.9,-,N/A,,Partly Cloudy,320,2013-04-30 20:53:00
5:53 PM,78.8,53.6,42,30.01,10.0,Calm,Calm,-,N/A,,Partly Cloudy,0,2013-04-30 21:53:00
6:53 PM,77.0,53.6,44,30.01,10.0,WNW,4.6,-,N/A,,Scattered Clouds,290,2013-04-30 22:53:00
7:53 PM,75.2,53.6,47,30.02,10.0,West,3.5,-,N/A,,Scattered Clouds,280,2013-04-30 23:53:00
8:53 PM,73.4,53.6,50,30.03,10.0,Calm,Calm,-,N/A,,Scattered Clouds,0,2013-05-01 00:53:00
9:53 PM,69.8,55.4,60,30.06,10.0,Calm,Calm,-,N/A,,Mostly Cloudy,0,2013-05-01 01:53:00
10:53 PM,69.8,57.2,64,30.07,10.0,Calm,Calm,-,N/A,,Mostly Cloudy,0,2013-05-01 02:53:00
11:53 PM,66.9,57.9,73,30.05,10.0,Calm,Calm,-,N/A,,Overcast,0,2013-05-01 03:53:00